[[{"header":{"parameterUnit":"m.s-1","parameterCategory":2,"la1":30.2991,"la2":30.254,"lo1":-89.0895,"lo2":-89.0444,"dy":0.0017,"dx":0.0017,"nx":28,"ny":28,"refTime":"2026-01-02T09:00:00:Z","depth":"0","parameterNumber":2,"parameterNumberName":"U-component_of_CURRENTS"},"data":[0,0,0,0,0,0,0,0,0,0,0,0,0,0,0,0,0,0,0,0,0,0,0,0,0,0,0,0,0,0,0,0,0,0,0,0,0,0,0,0,0,0,0,0,0,0,0,0,0,0,0,0,0,0,0,0,0,0,0.3808,0.3809,0,0.3875,0.3875,0.3875,0.3864,0.3863,0.3862,0.3861,0.3868,0.3869,0.387,0,0,0,0,0,0,0,0,0,0,0,0,0,0.368,0.3682,0.3808,0.3809,0.381,0.3875,0.3875,0.3876,0.3864,0.3863,0.3862,0.3861,0.3868,0.3869,0.387,0,0,0,0,0,0,0,0,0,0,0,0,0,0.3736,0.3682,0.3808,0.3815,0.3817,0.3874,0.3875,0.3876,0.3864,0.3863,0.3862,0.386,0.3868,0.3869,0.387,0.3903,0,0,0.3875,0.3875,0,0,0,0,0,0,0,0,0.3733,0.374,0.3813,0.3815,0.3817,0.3863,0.3833,0.3883,0.3864,0.3842,0.3861,0.386,0.3865,0.3866,0.3876,0.3903,0.3903,0.3875,0.3876,0.3876,0.3877,0,0,0,0,0,0,0,0.3729,0.3737,0.383,0.3814,0.3817,0.3819,0.3825,0.3842,0.3855,0.3844,0.3844,0.3858,0.3865,0.3875,0.3876,0.3904,0.3875,0.3876,0.3877,0.3877,0.4037,0.404,0,0,0,0,0,0,0.373,0.3734,0.3828,0.3832,0.3776,0.3822,0.3829,0.3846,0.3856,0.3858,0.3859,0.3858,0.3873,0.3875,0.3876,0.3987,0.3876,0.3877,0.3878,0.4033,0.4037,0.4041,0,0,0,0,0,0,0.3727,0.3738,0.3825,0.3787,0.3799,0.3826,0.3845,0.3848,0.3863,0.3869,0.3869,0.3872,0.3872,0.3875,0.3915,0.3984,0.3878,0.3879,0.4029,0.4035,0.4039,0.4161,0,0,0,0,0,0,0.3723,0.3737,0.3742,0.3788,0.3802,0.3869,0.3847,0.3851,0.3875,0.3874,0.388,0.3879,0.3872,0.3914,0.3917,0.3984,0.388,0.4025,0.4032,0.4038,0.4153,0.417,0.4184,0,0,0,0,0,0.3718,0.3736,0.3742,0.3753,0.3811,0.3871,0.3878,0.3889,0.3877,0.3895,0.3908,0.3879,0.3957,0.3917,0.392,0.3989,0.4022,0.403,0.4037,0.4146,0.4166,0.4184,0,0,0,0,0,0,0.3684,0.3739,0.3745,0.3778,0.3825,0.387,0.3891,0.3898,0.3923,0.3918,0.3913,0.3915,0.3981,0.3969,0.3925,0.4057,0.3989,0.3998,0.4071,0.409,0.4106,0.4094,0.3882,0,0,0,0,0,0.3682,0.3707,0.3764,0.3791,0.3819,0.3856,0.3878,0.3891,0.3923,0.3932,0.3942,0.3966,0.4018,0.4036,0.4063,0.4126,0.413,0.4177,0.4193,0.4206,0.4202,0.4302,0.4326,0.4066,0.4066,0.4066,0,0,0.3674,0.371,0.3722,0.3785,0.3822,0.3885,0.3866,0.3912,0.3966,0.393,0.3996,0.4015,0.4046,0.4126,0.4155,0.4122,0.4283,0.4216,0.4227,0.4215,0.4313,0.4338,0.436,0.4071,0.407,0.407,0,0,0.3695,0.3713,0.3751,0.3801,0.3866,0.3898,0.3916,0.3972,0.3997,0.4064,0.407,0.4126,0.4181,0.423,0.4262,0.438,0.4361,0.4396,0.4469,0.4568,0.459,0.4609,0.464,0.4661,0.4407,0.4407,0.4408,0,0.3684,0.3746,0.3772,0.3839,0.3888,0.3912,0.3981,0.4024,0.4082,0.4123,0.4097,0.4234,0.4239,0.4377,0.4412,0.4416,0.4444,0.4393,0.4588,0.4607,0.4625,0.4652,0.4674,0.4414,0.4413,0.4413,0.4412,0,0.3752,0.3803,0.3838,0.393,0.3982,0.4043,0.4116,0.4161,0.4189,0.4237,0.4356,0.4388,0.4466,0.4497,0.4483,0.4632,0.4602,0.4595,0.4536,0.4659,0.4679,0.47,0.4424,0.4421,0.4419,0.4418,0,0,0.3727,0.3858,0.387,0.3928,0.4036,0.4086,0.4187,0.4291,0.4359,0.4428,0.4541,0.4631,0.4639,0.4675,0.4693,0.4767,0.4899,0.4731,0.4733,0.4752,0.5085,0.4909,0.4914,0.494,0.4945,0.4948,0.5046,0,0.3776,0.3899,0.3957,0.4076,0.415,0.4214,0.4306,0.4397,0.4467,0.4575,0.4656,0.4761,0.4719,0.4767,0.4843,0.489,0.496,0.487,0.4969,0.4971,0.4795,0.4935,0.4645,0.4695,0.5065,0.5068,0.5071,0,0.3829,0.3905,0.4025,0.4155,0.4194,0.4258,0.4397,0.4488,0.4641,0.4701,0.4824,0.4882,0.5018,0.4958,0.5113,0.5063,0.5075,0.5098,0.5104,0.4905,0.4834,0.4636,0.4717,0.4597,0.5101,0.5099,0.5097,0,0.3802,0.3951,0.404,0.4091,0.4242,0.4295,0.4373,0.4514,0.4619,0.479,0.4881,0.5035,0.5116,0.5204,0.5225,0.5196,0.5368,0.5338,0.5196,0.5182,0.4932,0.4887,0.4894,0.5452,0.5452,0.5451,0.5451,0,0.3839,0.3909,0.4025,0.4077,0.4178,0.4284,0.4411,0.4502,0.4679,0.4803,0.494,0.5053,0.5184,0.5288,0.5301,0.5299,0.5437,0.5223,0.5216,0.4962,0.4921,0.4797,0.4756,0.5455,0.5454,0.5453,0.5453,0,0.3817,0.3895,0.3996,0.4129,0.417,0.4241,0.4427,0.4529,0.468,0.4852,0.4922,0.511,0.5211,0.531,0.5428,0.5363,0.5234,0.5361,0.5012,0.4959,0.4658,0.4633,0.4494,0.4374,0.5222,0.5219,0.5216,0,0.3829,0.3879,0.4003,0.4061,0.4121,0.4244,0.4335,0.4506,0.462,0.4859,0.4938,0.5099,0.5152,0.5257,0.5183,0.5184,0.5107,0.4918,0.4798,0.4613,0.4585,0.4471,0.4374,0.4523,0.4515,0.4508,0.4502,0,0.3867,0.3894,0.3977,0.4057,0.4142,0.425,0.438,0.4458,0.465,0.4749,0.4861,0.492,0.4981,0.4822,0.4811,0.4781,0.4646,0.4772,0.4705,0.4135,0.3891,0.3777,0.446,0.4441,0.4447,0.4452,0.4455,0.4458,0.3886,0.3921,0.4001,0.4061,0.4153,0.4202,0.4207,0.4329,0.4411,0.445,0.4634,0.4562,0.4522,0.4428,0.439,0.4109,0.4192,0.3947,0.3964,0.3892,0.3664,0.4171,0.4063,0.4067,0.407,0.4073,0.4075,0,0.3891,0.3927,0.4005,0.4043,0.4065,0.4126,0.4197,0.4133,0.408,0.4138,0.4136,0.3975,0.38,0.3771,0.3523,0.3338,0.323,0.3255,0.3056,0.303,0.3583,0.3438,0.3035,0.3035,0.3035,0.3035,0.3035,0.3035,0.3906,0.3939,0.3937,0.3925,0.3933,0.3834,0.3796,0.37,0.367,0.3454,0.329,0.3279,0.3321,0.3169,0.2916,0.2838,0.2683,0.2479,0.2608,0.3012,0.3079,0.3142,0.2998,0.251,0.251,0.1878,0.1873,0.187]},{"header":{"parameterUnit":"m.s-1","parameterCategory":2,"la1":30.2991,"la2":30.254,"lo1":-89.0895,"lo2":-89.0444,"dy":0.0017,"dx":0.0017,"nx":28,"ny":28,"refTime":"2026-01-02T09:00:00:Z","depth":"0","parameterNumber":3,"parameterNumberName":"V-component_of_CURRENTS"},"data":[0,0,0,0,0,0,0,0,0,0,0,0,0,0,0,0,0,0,0,0,0,0,0,0,0,0,0,0,0,0,0,0,0,0,0,0,0,0,0,0,0,0,0,0,0,0,0,0,0,0,0,0,0,0,0,0,0,0,0.0198,0.0197,0,0.017,0.017,0.0169,0.0136,0.0136,0.0135,0.0135,0.0106,0.0105,0.0105,0,0,0,0,0,0,0,0,0,0,0,0,0,0.0199,0.02,0.0198,0.0197,0.0197,0.017,0.017,0.0169,0.0136,0.0136,0.0135,0.0135,0.0106,0.0105,0.0105,0,0,0,0,0,0,0,0,0,0,0,0,0,0.0187,0.02,0.0198,0.0179,0.0177,0.0171,0.017,0.0169,0.0136,0.0136,0.0135,0.0135,0.0106,0.0105,0.0105,0.0112,0,0,0.0103,0.0102,0,0,0,0,0,0,0,0,0.0187,0.0186,0.0182,0.018,0.0178,0.0157,0.016,0.015,0.0136,0.015,0.0135,0.0134,0.0124,0.0122,0.0116,0.011,0.0109,0.0103,0.0102,0.0102,0.0102,0,0,0,0,0,0,0,0.0188,0.0187,0.0185,0.0182,0.0179,0.0164,0.0162,0.0158,0.0139,0.0149,0.0147,0.0146,0.0123,0.0117,0.0115,0.0109,0.0103,0.0102,0.0102,0.0101,0.0116,0.0117,0,0,0,0,0,0,0.0197,0.0188,0.0186,0.0184,0.0183,0.0165,0.0162,0.0163,0.0139,0.0135,0.0147,0.0145,0.0118,0.0116,0.0114,0.0147,0.0102,0.0101,0.0101,0.0115,0.0116,0.0117,0,0,0,0,0,0,0.0197,0.0197,0.0187,0.0187,0.0185,0.0166,0.0167,0.0163,0.0157,0.0138,0.0134,0.0145,0.0117,0.0115,0.0118,0.0144,0.0101,0.01,0.0114,0.0115,0.0116,0.0196,0,0,0,0,0,0,0.0197,0.0197,0.0202,0.0188,0.0185,0.0193,0.0168,0.0163,0.0159,0.0156,0.0136,0.0132,0.0117,0.0119,0.0117,0.0142,0.01,0.0113,0.0115,0.0116,0.0192,0.0199,0.0206,0,0,0,0,0,0.0197,0.0214,0.0203,0.0202,0.0192,0.0194,0.0192,0.0175,0.0159,0.0165,0.0151,0.0133,0.0127,0.012,0.0117,0.0143,0.0113,0.0114,0.0116,0.0189,0.0198,0.0205,0,0,0,0,0,0,0.022,0.0212,0.0199,0.0212,0.0206,0.0189,0.0197,0.018,0.0172,0.0169,0.0144,0.0141,0.0153,0.0135,0.0127,0.0149,0.0116,0.0118,0.0173,0.0181,0.0188,0.0226,0.0099,0,0,0,0,0,0.0227,0.0234,0.0223,0.0232,0.0234,0.0214,0.0212,0.0199,0.019,0.0185,0.0173,0.0161,0.0158,0.0159,0.0151,0.0166,0.0166,0.0179,0.0186,0.0192,0.0221,0.0246,0.0258,0.0123,0.0123,0.0123,0,0,0.0236,0.0234,0.0237,0.0237,0.0231,0.0256,0.0211,0.0216,0.0236,0.0185,0.021,0.0185,0.0166,0.0183,0.0187,0.0172,0.0226,0.0194,0.02,0.0226,0.0249,0.0263,0.0275,0.0124,0.0124,0.0123,0,0,0.0273,0.0261,0.0285,0.0289,0.0288,0.0282,0.0287,0.0276,0.027,0.0283,0.0254,0.0251,0.0242,0.0243,0.0239,0.028,0.0259,0.0265,0.0337,0.036,0.0372,0.0383,0.0384,0.0394,0.0272,0.0272,0.0272,0,0.0286,0.0317,0.0292,0.0324,0.0343,0.0302,0.0344,0.0336,0.0327,0.034,0.0303,0.0316,0.028,0.0326,0.0324,0.03,0.0299,0.0308,0.0372,0.0383,0.0392,0.0391,0.0401,0.0276,0.0275,0.0275,0.0275,0,0.0348,0.0374,0.0393,0.0423,0.0437,0.0463,0.0457,0.0463,0.0446,0.0444,0.0473,0.0433,0.0449,0.0422,0.0379,0.0433,0.0404,0.0376,0.0357,0.0411,0.0405,0.0414,0.0282,0.028,0.0279,0.0278,0,0,0.0378,0.0428,0.0434,0.0475,0.0494,0.0518,0.0551,0.0582,0.0627,0.06,0.0674,0.0626,0.0607,0.0601,0.0555,0.0555,0.0586,0.0492,0.0492,0.0504,0.0628,0.0563,0.0566,0.057,0.0573,0.0574,0.059,0,0.0437,0.0525,0.0529,0.0618,0.067,0.0655,0.07,0.0718,0.0724,0.0782,0.0748,0.0793,0.0677,0.0695,0.0677,0.0623,0.0618,0.0584,0.0565,0.0565,0.051,0.0578,0.0553,0.0562,0.0599,0.0601,0.0602,0,0.0501,0.0557,0.0654,0.0737,0.0759,0.08,0.0877,0.0915,0.0963,0.0974,0.1004,0.0986,0.0996,0.0891,0.0841,0.0825,0.0735,0.0676,0.0675,0.0603,0.0519,0.0516,0.0577,0.0449,0.0616,0.0615,0.0614,0,0.0554,0.0646,0.0731,0.0759,0.0841,0.0879,0.0923,0.0974,0.1049,0.1119,0.1196,0.1181,0.1207,0.1116,0.0962,0.0915,0.0904,0.083,0.0691,0.0684,0.0655,0.0642,0.0606,0.0806,0.0806,0.0806,0.0806,0,0.0628,0.0696,0.0763,0.0814,0.0928,0.0954,0.1082,0.1112,0.1221,0.1358,0.1313,0.1424,0.1262,0.1227,0.1062,0.0916,0.0984,0.0733,0.0701,0.0677,0.0666,0.0544,0.0451,0.0806,0.0806,0.0806,0.0806,0,0.0681,0.072,0.0829,0.0923,0.0958,0.1045,0.1195,0.1302,0.1372,0.156,0.1606,0.1627,0.1574,0.1397,0.1251,0.1054,0.083,0.0841,0.0807,0.077,0.0491,0.0403,0.0327,0.028,0.0704,0.0703,0.0702,0,0.072,0.0781,0.0907,0.0989,0.1036,0.1166,0.1272,0.1369,0.1507,0.1701,0.1818,0.1821,0.1853,0.1604,0.1267,0.0993,0.0831,0.0756,0.0652,0.0502,0.0381,0.0318,0.0281,0.0638,0.0637,0.0635,0.0634,0,0.0812,0.0846,0.0942,0.1094,0.1214,0.1367,0.1524,0.1656,0.1808,0.197,0.2162,0.2208,0.1958,0.1662,0.124,0.1034,0.0654,0.072,0.0597,0.0363,0.0266,0.0196,0.0581,0.0624,0.0625,0.0625,0.0626,0.0626,0.0881,0.0963,0.108,0.1225,0.1367,0.1551,0.1693,0.1884,0.2113,0.2353,0.2383,0.2452,0.1989,0.1418,0.1139,0.0566,0.0576,0.0373,0.0289,0.025,0.0173,0.0518,0.0496,0.0496,0.0497,0.0497,0.0497,0,0.0978,0.1069,0.1209,0.1387,0.1547,0.1601,0.1857,0.2017,0.2287,0.2468,0.2613,0.2372,0.1865,0.1323,0.0542,0.0193,0.0089,0.0018,-0.006,-0.0069,0.0275,0.0239,0.0123,0.0123,0.0123,0.0123,0.0124,0.0124,0.104,0.1182,0.1243,0.1502,0.163,0.185,0.1996,0.2227,0.2394,0.258,0.2567,0.2523,0.2054,0.0804,0.0022,-0.0143,-0.0339,-0.0424,-0.0482,-0.0255,-0.0227,-0.0201,-0.0253,-0.0471,-0.0472,-0.0774,-0.0778,-0.0781]}],[{"header":{"parameterUnit":"m.s-1","parameterCategory":2,"la1":30.2991,"la2":30.254,"lo1":-89.0895,"lo2":-89.0444,"dy":0.0017,"dx":0.0017,"nx":28,"ny":28,"refTime":"2026-01-02T09:00:00:Z","depth":"2","parameterNumber":2,"parameterNumberName":"U-component_of_CURRENTS"},"data":[0,0,0,0,0,0,0,0,0,0,0,0,0,0,0,0,0,0,0,0,0,0,0,0,0,0,0,0,0,0,0,0,0,0,0,0,0,0,0,0,0,0,0,0,0,0,0,0,0,0,0,0,0,0,0,0,0,0,0.2947,0.2948,0,0.2959,0.2959,0.2959,0.2956,0.2956,0.2956,0.2956,0.2973,0.2974,0.2974,0,0,0,0,0,0,0,0,0,0,0,0,0,0.292,0.292,0.2947,0.2948,0.2948,0.2959,0.2959,0.2959,0.2956,0.2956,0.2956,0.2956,0.2973,0.2974,0.2974,0,0,0,0,0,0,0,0,0,0,0,0,0,0.2929,0.2921,0.2947,0.295,0.295,0.2959,0.2959,0.2959,0.2956,0.2956,0.2956,0.2956,0.2973,0.2974,0.2974,0.2978,0,0,0.2977,0.2977,0,0,0,0,0,0,0,0,0.2929,0.293,0.2949,0.295,0.295,0.2958,0.2956,0.2967,0.2956,0.2951,0.2956,0.2956,0.2971,0.2971,0.297,0.2979,0.298,0.2977,0.2977,0.2977,0.2978,0,0,0,0,0,0,0,0.2928,0.293,0.2949,0.2949,0.295,0.295,0.2951,0.2958,0.2959,0.2951,0.2952,0.2957,0.2971,0.2969,0.297,0.298,0.2977,0.2977,0.2978,0.2978,0.3086,0.3089,0,0,0,0,0,0,0.2932,0.2929,0.2949,0.295,0.2942,0.295,0.2952,0.2954,0.2959,0.296,0.2957,0.2957,0.2968,0.297,0.2971,0.3057,0.2977,0.2978,0.2978,0.3084,0.3087,0.309,0,0,0,0,0,0,0.2931,0.2934,0.2948,0.2942,0.2944,0.2951,0.2953,0.2954,0.2965,0.2963,0.2964,0.2969,0.2968,0.297,0.2999,0.3055,0.2978,0.2979,0.3081,0.3085,0.3088,0.3177,0,0,0,0,0,0,0.2931,0.2933,0.2941,0.2942,0.2945,0.2971,0.2954,0.2954,0.2968,0.2969,0.2974,0.2975,0.2968,0.2998,0.3,0.3054,0.2979,0.3078,0.3083,0.3087,0.3171,0.3184,0.3194,0,0,0,0,0,0.2929,0.2936,0.2941,0.2944,0.2953,0.2973,0.2974,0.2977,0.2969,0.2984,0.299,0.2975,0.303,0.3,0.3002,0.3058,0.3076,0.3081,0.3087,0.3166,0.3181,0.3194,0,0,0,0,0,0,0.2926,0.2936,0.2942,0.2951,0.2971,0.2973,0.2983,0.2986,0.3,0.2998,0.2994,0.2996,0.3046,0.3038,0.3006,0.3105,0.3056,0.3062,0.3116,0.313,0.3141,0.313,0.298,0,0,0,0,0,0.293,0.2938,0.2955,0.2965,0.2974,0.2981,0.299,0.2995,0.3005,0.301,0.3026,0.3042,0.3069,0.3086,0.3102,0.3147,0.3157,0.3189,0.3201,0.321,0.3204,0.3289,0.3308,0.3108,0.3108,0.3108,0,0,0.2932,0.2939,0.2944,0.2966,0.2975,0.3001,0.2986,0.3003,0.3033,0.3011,0.306,0.3077,0.3088,0.3145,0.3168,0.3146,0.3274,0.3217,0.3225,0.3213,0.3297,0.3316,0.3333,0.3112,0.3111,0.311,0,0,0.2943,0.2947,0.2963,0.2984,0.3008,0.3015,0.3026,0.305,0.3068,0.3111,0.3115,0.3165,0.3197,0.3232,0.3246,0.333,0.3328,0.3345,0.3398,0.3483,0.3499,0.3514,0.3555,0.3572,0.3356,0.3356,0.3357,0,0.2949,0.2963,0.2973,0.3,0.3016,0.3027,0.3054,0.3079,0.3116,0.3151,0.3138,0.3236,0.324,0.3328,0.3354,0.3357,0.3387,0.3344,0.3498,0.3512,0.3526,0.3564,0.3582,0.3361,0.3361,0.336,0.336,0,0.2971,0.2993,0.3003,0.304,0.3067,0.3084,0.3123,0.3165,0.3187,0.3224,0.3316,0.3341,0.3406,0.3426,0.3404,0.3521,0.3504,0.3499,0.346,0.3552,0.3585,0.3603,0.3368,0.3367,0.3365,0.3364,0,0,0.2954,0.3007,0.3013,0.3037,0.3082,0.3104,0.3168,0.3232,0.3291,0.3349,0.3442,0.3494,0.3528,0.3546,0.3562,0.3621,0.3736,0.3599,0.3601,0.3633,0.3903,0.3745,0.3748,0.3768,0.3771,0.3774,0.3887,0,0.2966,0.3015,0.3042,0.3094,0.3118,0.316,0.3226,0.3295,0.3354,0.3456,0.3518,0.3606,0.3572,0.3622,0.3681,0.3733,0.3786,0.3703,0.3812,0.3815,0.366,0.3765,0.3444,0.3505,0.3904,0.3907,0.3909,0,0.2971,0.3004,0.3054,0.3123,0.314,0.3184,0.3285,0.3349,0.3489,0.3548,0.3656,0.3711,0.3828,0.3776,0.3917,0.3871,0.3885,0.3905,0.3911,0.3738,0.3689,0.3479,0.3522,0.3938,0.3936,0.3934,0.3932,0,0.2933,0.3007,0.3042,0.3065,0.3156,0.3199,0.3256,0.3383,0.3466,0.3626,0.3714,0.3847,0.3937,0.4,0.4023,0.4,0.4147,0.4131,0.3998,0.3986,0.3716,0.3673,0.4215,0.4214,0.4214,0.4214,0.4214,0,0.2917,0.2944,0.3034,0.3048,0.3121,0.3194,0.3284,0.3378,0.3538,0.3641,0.3769,0.386,0.3998,0.4086,0.4089,0.4091,0.4213,0.4016,0.4016,0.3736,0.3696,0.4064,0.4045,0.4218,0.4217,0.4216,0.4216,0,0.2873,0.292,0.2972,0.307,0.31,0.3165,0.3293,0.3376,0.353,0.3675,0.3741,0.3932,0.4032,0.412,0.4225,0.4165,0.4185,0.4139,0.3772,0.3724,0.3954,0.3939,0.4045,0.404,0.4036,0.4033,0.4031,0,0.2846,0.287,0.2976,0.3011,0.3054,0.3142,0.3206,0.3362,0.3449,0.3674,0.3747,0.3916,0.396,0.4064,0.4009,0.4009,0.4108,0.3691,0.3575,0.3953,0.3944,0.3934,0.3924,0.3266,0.3257,0.325,0.3245,0,0.2806,0.2857,0.2907,0.298,0.3045,0.3102,0.3197,0.3259,0.3434,0.3537,0.3637,0.3695,0.3792,0.3636,0.3649,0.3598,0.3671,0.3543,0.4083,0.3338,0.3222,0.3211,0.3227,0.3181,0.3188,0.3192,0.3196,0.3198,0.2786,0.282,0.2888,0.294,0.3004,0.3025,0.3001,0.3095,0.3165,0.3249,0.3399,0.3366,0.3399,0.3245,0.3131,0.305,0.3303,0.3153,0.3175,0.3204,0.3073,0.2955,0.2838,0.2842,0.2846,0.2849,0.2852,0,0.2763,0.2792,0.2832,0.2859,0.2846,0.2935,0.2962,0.2884,0.2845,0.2976,0.2994,0.2743,0.2642,0.2691,0.2453,0.2426,0.2409,0.2338,0.2292,0.2356,0.2413,0.2241,0.1786,0.1783,0.178,0.1777,0,0,0.2767,0.2756,0.275,0.2672,0.2693,0.2601,0.2574,0.2491,0.2496,0.2412,0.2381,0.257,0.263,0.2198,0.2118,0.1912,0.2131,0.1838,0.2695,0.2708,0.2762,0.2884,0.2691,0,0,0,0,0]},{"header":{"parameterUnit":"m.s-1","parameterCategory":2,"la1":30.2991,"la2":30.254,"lo1":-89.0895,"lo2":-89.0444,"dy":0.0017,"dx":0.0017,"nx":28,"ny":28,"refTime":"2026-01-02T09:00:00:Z","depth":"2","parameterNumber":3,"parameterNumberName":"V-component_of_CURRENTS"},"data":[0,0,0,0,0,0,0,0,0,0,0,0,0,0,0,0,0,0,0,0,0,0,0,0,0,0,0,0,0,0,0,0,0,0,0,0,0,0,0,0,0,0,0,0,0,0,0,0,0,0,0,0,0,0,0,0,0,0,0.0126,0.0126,0,0.0108,0.0108,0.0107,0.0083,0.0083,0.0083,0.0082,0.0061,0.0061,0.006,0,0,0,0,0,0,0,0,0,0,0,0,0,0.0123,0.0123,0.0126,0.0126,0.0126,0.0108,0.0108,0.0107,0.0083,0.0083,0.0082,0.0082,0.0061,0.0061,0.006,0,0,0,0,0,0,0,0,0,0,0,0,0,0.0115,0.0123,0.0126,0.0112,0.0111,0.0108,0.0108,0.0107,0.0083,0.0083,0.0082,0.0082,0.0061,0.0061,0.006,0.0066,0,0,0.0059,0.0059,0,0,0,0,0,0,0,0,0.0116,0.0115,0.0114,0.0113,0.0112,0.0098,0.0099,0.0094,0.0083,0.0092,0.0082,0.0082,0.0074,0.0073,0.0069,0.0065,0.0064,0.0059,0.0059,0.0059,0.0058,0,0,0,0,0,0,0,0.0117,0.0116,0.0117,0.0114,0.0113,0.0102,0.01,0.0098,0.0085,0.0092,0.009,0.009,0.0073,0.0069,0.0068,0.0064,0.0059,0.0059,0.0058,0.0058,0.0068,0.0069,0,0,0,0,0,0,0.0123,0.0117,0.0118,0.0117,0.0114,0.0102,0.0101,0.0102,0.0085,0.0082,0.0091,0.0089,0.007,0.0069,0.0067,0.0091,0.0059,0.0058,0.0058,0.0068,0.0068,0.0069,0,0,0,0,0,0,0.0123,0.0123,0.0119,0.0117,0.0116,0.0103,0.0105,0.0102,0.0099,0.0085,0.0082,0.009,0.007,0.0068,0.0071,0.0089,0.0058,0.0058,0.0067,0.0068,0.0069,0.0127,0,0,0,0,0,0,0.0123,0.0123,0.0128,0.0118,0.0116,0.0125,0.0105,0.0102,0.01,0.0098,0.0084,0.0081,0.0069,0.0072,0.0071,0.0088,0.0057,0.0066,0.0068,0.0068,0.0124,0.0129,0.0134,0,0,0,0,0,0.0123,0.0137,0.0128,0.0128,0.0123,0.0126,0.0124,0.0112,0.01,0.0106,0.0095,0.0081,0.0077,0.0072,0.007,0.0088,0.0066,0.0067,0.0068,0.0122,0.0128,0.0134,0,0,0,0,0,0,0.014,0.0136,0.0126,0.0138,0.0133,0.0122,0.0129,0.0116,0.0111,0.0109,0.009,0.0088,0.0097,0.0083,0.0078,0.0092,0.0069,0.007,0.011,0.0116,0.0121,0.0143,0.0057,0,0,0,0,0,0.0145,0.0153,0.0145,0.0154,0.0155,0.014,0.014,0.0131,0.0125,0.0121,0.0113,0.0104,0.01,0.0101,0.0095,0.0106,0.009,0.0114,0.0119,0.0123,0.014,0.0132,0.0138,0.0073,0.0073,0.0073,0,0,0.0152,0.0153,0.0156,0.0157,0.0153,0.0175,0.0139,0.0144,0.0161,0.0121,0.0143,0.0122,0.0106,0.0118,0.0121,0.011,0.0131,0.0125,0.0129,0.0144,0.0134,0.014,0.0146,0.0074,0.0074,0.0074,0,0,0.0182,0.0173,0.0195,0.0199,0.02,0.0197,0.02,0.0194,0.0189,0.0201,0.0177,0.0169,0.0166,0.016,0.0155,0.0184,0.0156,0.0177,0.0224,0.0215,0.0221,0.0226,0.0203,0.0205,0.0181,0.0181,0.0181,0,0.0192,0.0221,0.0201,0.0228,0.0245,0.0213,0.0249,0.0242,0.0237,0.0244,0.0218,0.0217,0.0191,0.0214,0.0214,0.0198,0.0182,0.0204,0.0223,0.0227,0.0231,0.0207,0.0209,0.0184,0.0183,0.0183,0.0183,0,0.0243,0.0268,0.0284,0.0312,0.0323,0.0346,0.0341,0.0346,0.0334,0.033,0.034,0.0303,0.0305,0.0287,0.0256,0.0274,0.0248,0.0229,0.0211,0.0242,0.0213,0.0214,0.0188,0.0187,0.0186,0.0185,0,0,0.0264,0.0312,0.0318,0.0354,0.0372,0.0392,0.0418,0.0441,0.0473,0.0445,0.0486,0.0446,0.0418,0.041,0.0367,0.0348,0.0339,0.03,0.0298,0.0283,0.0311,0.0258,0.0253,0.0322,0.0323,0.0323,0.0277,0,0.0314,0.0392,0.0397,0.0474,0.052,0.0507,0.0543,0.0554,0.0553,0.0582,0.0534,0.0556,0.0468,0.0472,0.0436,0.0375,0.0346,0.0353,0.028,0.0278,0.0231,0.0255,0.0273,0.023,0.0277,0.0277,0.0277,0,0.0367,0.0419,0.0504,0.0577,0.0594,0.0629,0.0686,0.0716,0.0732,0.0733,0.0728,0.0693,0.0665,0.0588,0.0494,0.0501,0.0411,0.035,0.0346,0.0282,0.0227,0.0209,0.023,0.0278,0.0278,0.0278,0.0278,0,0.0412,0.0494,0.057,0.0594,0.0666,0.0696,0.0732,0.0762,0.082,0.0839,0.0883,0.0825,0.0822,0.0708,0.055,0.0531,0.0441,0.0403,0.027,0.0264,0.026,0.0252,0.034,0.034,0.034,0.034,0.034,0,0.0474,0.0534,0.0598,0.0643,0.0741,0.0761,0.0865,0.0882,0.095,0.1042,0.097,0.1016,0.0852,0.0771,0.0608,0.044,0.0482,0.0288,0.0256,0.0277,0.0272,0.03,0.0296,0.0338,0.0338,0.0339,0.0339,0,0.0518,0.0555,0.0654,0.0737,0.0768,0.0842,0.0966,0.1052,0.1088,0.1206,0.1226,0.118,0.1066,0.0879,0.0697,0.0531,0.0368,0.0293,0.0316,0.0287,0.0182,0.0181,0.0159,0.0156,0.0155,0.0153,0.0152,0,0.055,0.0605,0.0721,0.0794,0.0836,0.095,0.1042,0.1117,0.1225,0.1306,0.138,0.1301,0.1252,0.0952,0.0666,0.039,0.0349,0.0209,0.0171,0.0196,0.0167,0.0169,0.0171,0.0183,0.0183,0.0182,0.0181,0,0.0622,0.0657,0.0739,0.0883,0.0991,0.1129,0.1262,0.1368,0.1469,0.1544,0.1602,0.1559,0.1283,0.0996,0.0614,0.0421,0.0253,0.0184,0.023,0.0219,0.0213,0.0186,0.0189,0.0175,0.0175,0.0176,0.0176,0.0177,0.0674,0.0745,0.0851,0.0986,0.1119,0.1285,0.1399,0.1541,0.1688,0.1794,0.1747,0.1671,0.136,0.0863,0.0538,0.02,0.0218,0.0083,0.0088,0.0094,0.0097,0.0088,0.0027,0.0026,0.0026,0.0026,0.0026,0,0.0753,0.0829,0.0953,0.1115,0.1262,0.1324,0.1535,0.1633,0.1784,0.1867,0.1879,0.1552,0.1242,0.0889,0.0391,0.0087,0.008,-0.002,0.0042,0.005,0.0057,0.0061,-0.0021,-0.0022,-0.0023,-0.0023,0,0,0.0802,0.0921,0.0974,0.12,0.1322,0.1507,0.1625,0.1745,0.1834,0.1875,0.1837,0.1766,0.134,0.0966,0.0559,0.0272,0.0232,0.0211,0.028,0.0409,0.042,0.0144,0.0162,0,0,0,0,0]}],[{"header":{"parameterUnit":"m.s-1","parameterCategory":2,"la1":30.2991,"la2":30.254,"lo1":-89.0895,"lo2":-89.0444,"dy":0.0017,"dx":0.0017,"nx":28,"ny":28,"refTime":"2026-01-02T09:00:00:Z","depth":"4","parameterNumber":2,"parameterNumberName":"U-component_of_CURRENTS"},"data":[0,0,0,0,0,0,0,0,0,0,0,0,0,0,0,0,0,0,0,0,0,0,0,0,0,0,0,0,0,0,0,0,0,0,0,0,0,0,0,0,0,0,0,0,0,0,0,0,0,0,0,0,0,0,0,0,0,0,0.1814,0.1815,0,0.1851,0.1851,0.1852,0.19,0.1902,0.1903,0.1904,0.1969,0.197,0.197,0,0,0,0,0,0,0,0,0,0,0,0,0,0.178,0.178,0.1814,0.1815,0.1815,0.1851,0.1851,0.1852,0.19,0.1902,0.1903,0.1904,0.1969,0.1969,0.197,0,0,0,0,0,0,0,0,0,0,0,0,0,0.1801,0.178,0.1814,0.1846,0.185,0.1851,0.1851,0.1852,0.19,0.1902,0.1903,0.1905,0.1968,0.1969,0.197,0.1944,0,0,0.1974,0.1974,0,0,0,0,0,0,0,0,0.1799,0.1801,0.1841,0.1844,0.1848,0.1876,0.1864,0.1885,0.19,0.1878,0.1904,0.1906,0.1941,0.1944,0.1943,0.1947,0.195,0.1974,0.1974,0.1975,0.1975,0,0,0,0,0,0,0,0.1798,0.18,0.1825,0.1841,0.1846,0.1858,0.1862,0.1867,0.1898,0.188,0.1884,0.1893,0.1943,0.1942,0.1945,0.1951,0.1974,0.1975,0.1975,0.1976,0.2073,0.2075,0,0,0,0,0,0,0.1798,0.1799,0.1824,0.1827,0.1831,0.1857,0.1862,0.1863,0.1897,0.1905,0.1891,0.1895,0.1939,0.1944,0.1948,0.2031,0.1975,0.1976,0.1977,0.2071,0.2073,0.2075,0,0,0,0,0,0,0.1797,0.18,0.1823,0.1817,0.1821,0.1856,0.1856,0.1862,0.1902,0.1906,0.1914,0.193,0.1941,0.1946,0.1994,0.203,0.1976,0.1977,0.2069,0.2072,0.2074,0.2126,0,0,0,0,0,0,0.1796,0.1799,0.1819,0.1816,0.1822,0.1845,0.1855,0.1862,0.1904,0.191,0.1941,0.1947,0.1942,0.1993,0.1995,0.2031,0.1978,0.2066,0.207,0.2073,0.2122,0.2131,0.2138,0,0,0,0,0,0.1794,0.1804,0.1819,0.1824,0.1841,0.1846,0.185,0.1878,0.1905,0.1921,0.1955,0.1948,0.2018,0.1995,0.1997,0.2034,0.2064,0.2069,0.2073,0.2119,0.2129,0.2138,0,0,0,0,0,0,0.1803,0.181,0.1827,0.1842,0.1857,0.1857,0.1882,0.1899,0.1936,0.1959,0.1965,0.1973,0.2031,0.2026,0.2001,0.2075,0.2042,0.2047,0.2077,0.2086,0.2094,0.2097,0.1979,0,0,0,0,0,0.1813,0.1827,0.1833,0.1853,0.1862,0.1881,0.1897,0.1915,0.1937,0.1957,0.1981,0.2013,0.2042,0.2061,0.2081,0.2113,0.2126,0.2142,0.215,0.2157,0.2163,0.2221,0.2234,0.2089,0.2089,0.2089,0,0,0.1825,0.1832,0.1844,0.1857,0.1875,0.1886,0.1895,0.1927,0.1954,0.1957,0.2018,0.2043,0.2059,0.2103,0.2129,0.2109,0.2207,0.2162,0.2168,0.2171,0.2227,0.2241,0.2253,0.2092,0.2092,0.2091,0,0,0.1834,0.1862,0.187,0.1882,0.1912,0.1921,0.1939,0.1962,0.1996,0.2047,0.2063,0.2114,0.2154,0.2169,0.2182,0.2245,0.2249,0.226,0.2298,0.2353,0.2366,0.2376,0.2414,0.2427,0.226,0.226,0.226,0,0.1856,0.1858,0.1877,0.1884,0.1905,0.194,0.1956,0.1985,0.2027,0.2063,0.2082,0.2175,0.2184,0.2239,0.2261,0.2262,0.2293,0.2257,0.2363,0.2374,0.2384,0.242,0.2434,0.2263,0.2263,0.2262,0.2262,0,0.185,0.1872,0.1881,0.1903,0.1929,0.1951,0.1988,0.2033,0.209,0.2123,0.2216,0.2245,0.2302,0.2313,0.2306,0.2383,0.2382,0.2369,0.2336,0.2402,0.2435,0.2449,0.2267,0.2266,0.2265,0.2264,0,0,0.1843,0.1872,0.188,0.1896,0.1945,0.1958,0.2021,0.2076,0.2137,0.2204,0.2286,0.2339,0.2381,0.2398,0.2408,0.2448,0.2538,0.2443,0.2445,0.2474,0.2665,0.2466,0.2462,0.2554,0.2556,0.2559,0.266,0,0.184,0.1851,0.1875,0.1911,0.1921,0.1981,0.2031,0.2097,0.2181,0.2269,0.2333,0.2419,0.2406,0.2458,0.2497,0.2534,0.2579,0.2512,0.2602,0.2604,0.2414,0.2473,0.2567,0.267,0.2673,0.2676,0.2677,0,0.1814,0.1831,0.1858,0.1912,0.1927,0.1965,0.2073,0.2123,0.2249,0.2327,0.2433,0.2494,0.2579,0.2563,0.2667,0.2633,0.2658,0.2676,0.2681,0.2484,0.243,0.2591,0.2703,0.2701,0.2699,0.2697,0.2696,0,0.1775,0.1816,0.1843,0.186,0.1927,0.1976,0.2032,0.2151,0.2223,0.2385,0.2476,0.2581,0.2665,0.2719,0.276,0.2737,0.2864,0.2833,0.2679,0.2666,0.2792,0.2779,0.2912,0.2912,0.2911,0.2911,0.2911,0,0.1732,0.1756,0.1833,0.1845,0.1894,0.1964,0.2054,0.2135,0.2285,0.2375,0.2512,0.2599,0.2715,0.2794,0.2808,0.278,0.2911,0.2693,0.2679,0.2811,0.28,0.2802,0.2787,0.2915,0.2914,0.2913,0.2913,0,0.1664,0.1714,0.175,0.1841,0.1871,0.1914,0.2049,0.2118,0.2279,0.2411,0.2475,0.265,0.274,0.2823,0.2914,0.2824,0.2827,0.2788,0.2934,0.2927,0.2581,0.2569,0.2618,0.2612,0.2607,0.2602,0.2599,0,0.1619,0.1632,0.1736,0.1763,0.1809,0.1888,0.1942,0.2099,0.2179,0.2411,0.2458,0.2624,0.2711,0.269,0.2774,0.279,0.2752,0.2733,0.2634,0.2569,0.2553,0.2549,0.2544,0.259,0.2589,0.2588,0.2586,0,0.1529,0.1592,0.1623,0.169,0.1753,0.1798,0.1895,0.1941,0.2124,0.2302,0.239,0.2443,0.2533,0.2573,0.2607,0.2609,0.2727,0.2678,0.2687,0.2594,0.2536,0.2524,0.2526,0.2568,0.2571,0.2572,0.2573,0,0.1476,0.1482,0.1544,0.1586,0.1655,0.1673,0.174,0.1821,0.1911,0.217,0.2189,0.2361,0.2513,0.2481,0.2512,0.2495,0.2443,0.2344,0.237,0.2391,0.2262,0.2152,0.206,0,0,0,0,0,0.1409,0.14,0.1429,0.1456,0.1523,0.1568,0.1685,0.1766,0.1951,0.1962,0.2071,0.2146,0.2194,0.2274,0.2208,0.2386,0.244,0.2294,0.2336,0.2468,0.2489,0.2353,0,0,0,0,0,0,0.136,0.1383,0.1382,0.133,0.1343,0.1395,0.1472,0.1602,0.1608,0.1814,0.1854,0.2006,0.2083,0.2219,0.2169,0.2189,0.2164,0.2399,0.2392,0.2456,0.2475,0.2492,0.2359,0,0,0,0,0]},{"header":{"parameterUnit":"m.s-1","parameterCategory":2,"la1":30.2991,"la2":30.254,"lo1":-89.0895,"lo2":-89.0444,"dy":0.0017,"dx":0.0017,"nx":28,"ny":28,"refTime":"2026-01-02T09:00:00:Z","depth":"4","parameterNumber":3,"parameterNumberName":"V-component_of_CURRENTS"},"data":[0,0,0,0,0,0,0,0,0,0,0,0,0,0,0,0,0,0,0,0,0,0,0,0,0,0,0,0,0,0,0,0,0,0,0,0,0,0,0,0,0,0,0,0,0,0,0,0,0,0,0,0,0,0,0,0,0,0,0.0121,0.0121,0,0.0115,0.0115,0.0115,0.0105,0.0104,0.0104,0.0104,0.0099,0.0098,0.0098,0,0,0,0,0,0,0,0,0,0,0,0,0,0.0111,0.0111,0.0121,0.0121,0.0121,0.0115,0.0115,0.0115,0.0105,0.0104,0.0104,0.0104,0.0099,0.0098,0.0098,0,0,0,0,0,0,0,0,0,0,0,0,0,0.011,0.0111,0.0121,0.0116,0.0115,0.0115,0.0115,0.0115,0.0105,0.0104,0.0104,0.0104,0.0099,0.0098,0.0098,0.0102,0,0,0.0098,0.0098,0,0,0,0,0,0,0,0,0.011,0.0111,0.0117,0.0116,0.0116,0.0111,0.0109,0.0111,0.0105,0.0108,0.0104,0.0104,0.0103,0.0103,0.0101,0.0102,0.0102,0.0098,0.0098,0.0098,0.0098,0,0,0,0,0,0,0,0.011,0.0111,0.0118,0.0117,0.0116,0.0109,0.0109,0.0109,0.0106,0.0108,0.0107,0.0108,0.0103,0.0101,0.0101,0.0102,0.0098,0.0098,0.0098,0.0098,0.0113,0.0114,0,0,0,0,0,0,0.0113,0.0111,0.0118,0.0118,0.0113,0.011,0.0109,0.0112,0.0106,0.0105,0.0108,0.0107,0.0101,0.0101,0.0101,0.0123,0.0098,0.0098,0.0098,0.0113,0.0113,0.0114,0,0,0,0,0,0,0.0113,0.0114,0.0119,0.0115,0.0115,0.011,0.0113,0.0112,0.0114,0.0106,0.0105,0.0111,0.0101,0.0101,0.0108,0.0122,0.0098,0.0098,0.0112,0.0113,0.0114,0.0157,0,0,0,0,0,0,0.0113,0.0114,0.0119,0.0115,0.0115,0.0125,0.0114,0.0112,0.0114,0.0114,0.0109,0.0108,0.0101,0.0108,0.0108,0.0122,0.0098,0.0112,0.0113,0.0114,0.0155,0.0159,0.0162,0,0,0,0,0,0.0113,0.0124,0.012,0.0121,0.0122,0.0126,0.0125,0.012,0.0115,0.012,0.0117,0.0108,0.0113,0.0109,0.0108,0.0123,0.0112,0.0113,0.0113,0.0153,0.0158,0.0162,0,0,0,0,0,0,0.0122,0.0124,0.0119,0.013,0.0129,0.0124,0.0131,0.0124,0.0125,0.0126,0.0116,0.0115,0.0125,0.0117,0.0112,0.0128,0.011,0.0111,0.014,0.0145,0.0148,0.0159,0.0098,0,0,0,0,0,0.0126,0.0135,0.0132,0.014,0.0143,0.0136,0.0138,0.0134,0.0133,0.0133,0.0132,0.0129,0.0129,0.0131,0.0129,0.0141,0.0114,0.0148,0.0152,0.0155,0.0163,0.0129,0.013,0.0117,0.0117,0.0117,0,0,0.0131,0.0134,0.0137,0.0143,0.0143,0.0161,0.0137,0.0144,0.0159,0.0133,0.0156,0.0143,0.0134,0.0146,0.015,0.0142,0.0144,0.0156,0.0159,0.0165,0.013,0.0131,0.0132,0.0118,0.0118,0.0118,0,0,0.0151,0.0149,0.0166,0.0172,0.0177,0.0177,0.0181,0.0181,0.0181,0.0196,0.018,0.0175,0.0182,0.0175,0.0173,0.0195,0.0163,0.0195,0.0226,0.0193,0.0194,0.0194,0.0158,0.0154,0.0199,0.0199,0.0199,0,0.0157,0.0182,0.0171,0.0193,0.0208,0.019,0.0218,0.0217,0.0219,0.0224,0.0211,0.021,0.0197,0.0208,0.0214,0.0205,0.0178,0.0211,0.0198,0.0197,0.0197,0.016,0.0155,0.0201,0.0201,0.02,0.02,0,0.0194,0.0217,0.0229,0.0256,0.0266,0.0287,0.0288,0.0295,0.0291,0.0288,0.0293,0.0268,0.0267,0.0259,0.0245,0.0241,0.022,0.0204,0.0187,0.0201,0.016,0.0155,0.0204,0.0203,0.0202,0.0202,0,0,0.0204,0.0248,0.0254,0.0284,0.0304,0.032,0.0344,0.0362,0.0382,0.0365,0.0383,0.0365,0.034,0.0335,0.0308,0.0278,0.0244,0.0244,0.0241,0.0209,0.0166,0.0146,0.0138,0.0223,0.0223,0.0223,0.0137,0,0.024,0.0302,0.0311,0.0372,0.0409,0.0405,0.0434,0.0442,0.0442,0.0452,0.041,0.0418,0.0373,0.0372,0.0333,0.0269,0.0234,0.0269,0.0157,0.0153,0.0135,0.0133,0.0221,0.0133,0.0132,0.0131,0.013,0,0.0277,0.0319,0.0387,0.0446,0.046,0.0491,0.0532,0.0556,0.0555,0.0552,0.0535,0.0501,0.046,0.0417,0.0308,0.0332,0.0256,0.0198,0.0193,0.0158,0.0124,0.0116,0.0121,0.0121,0.0122,0.0123,0.0123,0,0.0303,0.0372,0.0432,0.0454,0.0513,0.0539,0.057,0.0587,0.0623,0.0617,0.063,0.0567,0.0541,0.0439,0.0311,0.031,0.018,0.0162,0.0073,0.007,0.0094,0.0095,0.0086,0.0086,0.0086,0.0086,0.0087,0,0.0343,0.0392,0.0453,0.0488,0.0563,0.0585,0.066,0.067,0.0704,0.0749,0.0687,0.0688,0.0545,0.0451,0.033,0.0182,0.019,0.0078,0.0048,0.0114,0.0117,0.009,0.0092,0.0083,0.0084,0.0084,0.0085,0,0.0365,0.0404,0.0481,0.0553,0.058,0.0636,0.0731,0.0785,0.08,0.0851,0.0853,0.0777,0.0651,0.0497,0.0323,0.0213,0.0073,0.002,0.01,0.0076,-0.0021,-0.0016,-0.0086,-0.0087,-0.0088,-0.0089,-0.009,0,0.0384,0.0427,0.0525,0.0581,0.062,0.071,0.0777,0.083,0.0889,0.0903,0.0923,0.0821,0.0746,0.0487,0.0315,0.0079,0.0045,-0.0035,-0.0028,-0.0015,-0.0038,-0.0031,-0.0025,-0.0092,-0.0092,-0.0093,-0.0093,0,0.042,0.0453,0.0514,0.0624,0.0708,0.0811,0.0903,0.0951,0.1006,0.102,0.0982,0.0847,0.0699,0.0489,0.0302,0.0134,0.0012,-0.0048,-0.0047,-0.0041,-0.0024,-0.0043,-0.0036,-0.0097,-0.0096,-0.0096,-0.0096,0,0.0442,0.0487,0.0564,0.0663,0.077,0.0872,0.0927,0.099,0.1042,0.105,0.103,0.087,0.0779,0.0516,0.0346,0.0174,0.0129,0.0067,0.0062,0.0064,0.0128,0.0172,0.0135,0,0,0,0,0,0.0465,0.0514,0.0601,0.0709,0.0816,0.0881,0.0992,0.1041,0.1086,0.1069,0.1056,0.0918,0.0658,0.0545,0.0371,0.0312,0.0091,0.01,0.0016,-0.012,-0.0115,-0.0068,0,0,0,0,0,0,0.0481,0.0556,0.0594,0.0723,0.0805,0.0928,0.1002,0.104,0.1035,0.1045,0.0915,0.0859,0.0611,0.0755,0.0361,0.0309,0.0227,-0.0014,-0.0019,-0.0122,-0.0118,-0.0114,-0.0064,0,0,0,0,0]}]]